Orbital Elements at Epoch 2459000.5 (2020-May-31.0) TDB
Reference: JPL 33 (heliocentric ecliptic J2000)
Element | Value | Uncertainty (1-sigma) | Units |
e | .07921603121155403 | 4.1941e-08 | |
a | 2.543899910725476 | 1.2368e-08 | au |
q | 2.342382255998377 | 1.0563e-07 | au |
i | 21.79202145466628 | 4.8039e-06 | deg |
node | 199.2298077230825 | 1.1789e-05 | deg |
peri | 279.4523727686868 | 3.0871e-05 | deg |
M | 34.97898033426466 | 2.946e-05 | deg |
tp | 2458856.503113625109 (2020-Jan-08.00311363) | 0.00012101 | TDB |
period | 1482.000864507208 4.06 | 1.0808e-05 2.959e-08 | d yr |
n | .2429148380555813 | 1.7715e-09 | deg/d |
Q | 2.745417565452575 | 1.3348e-08 | au |
|
| | Orbit Determination Parameters
Additional Information
|